Header for Extended Forecast Station List Page

Search by: ID | Name | Date | Parm | Value | Avg | % Avg
Sort by: ID | Name | Date | Parm | Value | Avg | % Avg

Enter search or view all records.

Click on id for station plot
#IDNameDateParmValueAvg% Avg
0HWRI1BIG LOST-AT HOWELL RANCH NEAR CHILLY01-17-2022DISCHARGE (KAF)223464
1MACI1BIG LOST-MACKAY RESERVOIR NEAR MACKAY01-17-2022INFLOW (KAF)293777
2HALI1BIG WOOD-AT HAILEY01-17-2022DISCHARGE (KAF)427854
3MAGI1BIG WOOD-MAGIC DAM01-17-2022INFLOW (KAF)659568
4BITM8BITTERROOT-NEAR MISSOULA01-17-2022DISCHARGE (KAF)34244477
5BONM8BLACKFOOT-NEAR BONNER01-17-2022DISCHARGE (KAF)26534976
6BIGI1BOISE-AT GLENWOOD BRIDGE01-17-2022DISCHARGE (KAF)290137211
7LUCI1BOISE-LUCKY PEAK DAM01-17-2022INFLOW (KAF)669589114
8PARI1BOISE-NEAR PARMA01-17-2022DISCHARGE (KAF)406219185
9HOTI1BRUNEAU-NEAR HOT SPRINGS01-17-2022DISCHARGE (KAF)669073
10BULO3BULLY CREEK-BULLY CREEK DAM01-17-2022INFLOW (KAF)105184
11BUDW1BUMPING-BUMPING LAKE DAM01-17-2022INFLOW (KAF)7061114
12CHDW1CHELAN-LAKE CHELAN DAM01-17-2022INFLOW (KAF)36140789
13ABOM8CLARK FORK-ABOVE MISSOULA01-17-2022DISCHARGE (KAF)46063972
14DLGM8CLARK FORK-AT DEER LODGE01-17-2022DISCHARGE (KAF)465879
15SRGM8CLARK FORK-AT ST REGIS01-17-2022DISCHARGE (KAF)1122150275
16BELM8CLARK FORK-BELOW MISSOULA01-17-2022DISCHARGE (KAF)803110972
17CABI1CLARK FORK-CABINET GORGE DAM01-17-2022INFLOW (KAF)3944492680
18NOXM8CLARK FORK-NOXON RAPIDS DAM01-17-2022INFLOW (KAF)3536429782
19DRMM8CLARK FORK-NR DRUMMOND01-17-2022DISCHARGE (KAF)11215771
20CLUW1CLE ELUM-CLE ELUM LAKE01-17-2022INFLOW (KAF)242208117
21ORFI1CLEARWATER-AT OROFINO01-17-2022DISCHARGE (KAF)25752447105
22SPDI1CLEARWATER-AT SPALDING01-17-2022DISCHARGE (KAF)51904107126
23COEI1COEUR D ALENE-COEUR D ALENE LAKE01-17-2022INFLOW (KAF)24522252109
24CIBW1COLUMBIA-AT INTL BOUNDARY01-17-2022DISCHARGE (KAF)2333419572119
25BONO3COLUMBIA-BONNEVILLE DAM01-17-2022INFLOW (KAF)4749246810101
26CHJW1COLUMBIA-CHIEF JOSEPH DAM01-17-2022INFLOW (KAF)2863425394113
27GCDW1COLUMBIA-GRAND COULEE DAM01-17-2022INFLOW (KAF)2663522768117
28JDAO3COLUMBIA-JOHN DAY DAM01-17-2022INFLOW (KAF)4576844249103
29MCDW1COLUMBIA-MCNARY DAM01-17-2022INFLOW (KAF)4386342207104
30PRWW1COLUMBIA-PRIEST RAPIDS DAM01-17-2022INFLOW (KAF)3077628023110
31RRHW1COLUMBIA-ROCKY REACH DAM01-17-2022INFLOW (KAF)3011927087111
32TDAO3COLUMBIA-THE DALLES DAM01-17-2022INFLOW (KAF)4631944788103
33WANW1COLUMBIA-WANAPUM DAM01-17-2022INFLOW (KAF)3078027946110
34WELW1COLUMBIA-WELLS DAM01-17-2022INFLOW (KAF)2969626571112
35DEDI1DEADWOOD-NEAR LOWMAN01-17-2022INFLOW (KAF)395472
36MODO3DESCHUTES-AT MOODY NR BIGGS01-17-2022DISCHARGE (KAF)15151471103
37ARDW1ENTIAT-NEAR ARDENVOIR01-17-2022DISCHARGE (KAF)7464117
38CHEI1FALL RIVER-NEAR CHESTER01-17-2022DISCHARGE (KAF)15218084
39CFMM8FLATHEAD-AT COLUMBIA FALLS01-17-2022DISCHARGE (KAF)19341906101
40KERM8FLATHEAD-SELI’Š KSANKA QLISPE’ DAM01-17-2022INFLOW (KAF)2125248486
41TRYO3GRANDE RONDE-TROY01-17-2022DISCHARGE (KAF)91598793
42REXI1HENRYS FORK-AT REXBURG01-17-2022DISCHARGE (KAF)42851783
43ANTI1HENRYS FORK-AT ST. ANTHONY01-17-2022DISCHARGE (KAF)39847883
44IPDI1HENRYS FORK-ISLAND PARK DAM01-17-2022INFLOW (KAF)11813488
45HODO3HOOD-NEAR TUCKER BRIDGE01-17-2022DISCHARGE (KAF)326270121
46SERO3JOHN DAY-AT SERVICE CK01-17-2022DISCHARGE (KAF)53573473
47KADW1KACHESS-KACHESS DAM01-17-2022INFLOW (KAF)9178117
48LAUW1KETTLE-AT LAURIER01-17-2022DISCHARGE (KAF)65181980
49PITW1KLICKITAT-NEAR PITT01-17-2022DISCHARGE (KAF)509483105
50BFEI1KOOTENAI-AT BONNERS FERRY01-17-2022STAGE (FT)MMM
51LEOI1KOOTENAI-AT LEONIA01-17-2022DISCHARGE (KAF)36602128172
52LYDM8KOOTENAI-LIBBY DAM01-17-2022INFLOW (KAF)16251597102
53LWRI1LITTLE WOOD-LITTLE WOOD DAM01-17-2022INFLOW (KAF)4134120
54BERO3MALHEUR-AGENCY VALLEY DAM01-17-2022INFLOW (KAF)374484
55WRMO3MALHEUR-WARM SPRINGS DAM01-17-2022INFLOW (KAF)537571
56MYKO3MCKAY CREEK-NEAR PILOT ROCK01-17-2022DISCHARGE (KAF)394488
57PATW1METHOW-NEAR PATEROS01-17-2022DISCHARGE (KAF)335319105
58WGCM8MF FLATHEAD-NEAR WEST GLACIER01-17-2022DISCHARGE (KAF)34151367
59CLFW1NACHES-NEAR CLIFFDEL01-17-2022DISCHARGE (KAF)20822891
60NACW1NACHES-NEAR NACHES01-17-2022DISCHARGE (KAF)29232789
61DWRI1NF CLEARWATER-DWORSHAK DAM01-17-2022INFLOW (KAF)20001695118
62FCFM8NF FLATHEAD-NEAR COLUMBIA FALLS01-17-2022DISCHARGE (KAF)557541103
63MONO3NF JOHN DAY-AT MONUMENT01-17-2022DISCHARGE (KAF)39850878
64CSDI1NF PAYETTE-CASCADE DAM01-17-2022INFLOW (KAF)21925386
65TONW1OKANOGAN-NEAR TONASKET01-17-2022DISCHARGE (KAF)752636118
66OWYO3OWYHEE-OWYHEE DAM01-17-2022INFLOW (KAF)416247168
67EMMI1PAYETTE-NEAR EMMETT01-17-2022DISCHARGE (KAF)62970190
68ALFW1PEND OREILLE-ALBENI FALLS DAM01-17-2022INFLOW (KAF)4937585084
69HOPI1PEND OREILLE-PEND OREILLE LAKE NR HOPE01-17-2022LAKE ELEVATION (FT)MMM
70PIHI1PORTNEUF-AT POCATELLO01-17-2022DISCHARGE (KAF)687295
71PRTI1PRIEST-NEAR PRIEST RIVER01-17-2022DISCHARGE (KAF)41246788
72RCCM8ROCK CREEK-NEAR CLINTON01-17-2022DISCHARGE (KAF)669668
73WHBI1SALMON-AT WHITEBIRD01-17-2022DISCHARGE (KAF)1573228669
74ARAI1SF BOISE-ANDERSON RANCH DAM01-17-2022INFLOW (KAF)230227101
75HHWM8SF FLATHEAD-HUNGRY HORSE DAM01-17-2022INFLOW (KAF)62974584
76PLDI1SF SNAKE-PALISADES DAM01-17-2022INFLOW (KAF)809104478
77SIFI1SNAKE-AB EAGLE ROCK NR IDAHO FALLS01-17-2022DISCHARGE (KAF)11691059110
78AFRI1SNAKE-AMERICAN FALLS RESERVOIR01-17-2022INFLOW (KAF)15641439109
79SNAI1SNAKE-AT BLACKFOOT01-17-2022DISCHARGE (KAF)966791122
80MILI1SNAKE-AT MILNER01-17-2022DISCHARGE (KAF)M54M
81WEII1SNAKE-AT WEISER01-17-2022DISCHARGE (KAF)3417357196
82SWAI1SNAKE-BELOW SWAN FALLS01-17-2022DISCHARGE (KAF)1739188192
83BRNI1SNAKE-BROWNLEE DAM01-17-2022INFLOW (KAF)3814394097
84IHDW1SNAKE-ICE HARBOR DAM01-17-2022INFLOW (KAF)119921306192
85JLKW4SNAKE-JACKSON LAKE AT DAM01-17-2022INFLOW (KAF)17224371
86LGSW1SNAKE-LITTLE GOOSE DAM01-17-2022INFLOW (KAF)115931285490
87LGDW1SNAKE-LOWER GRANITE DAM01-17-2022INFLOW (KAF)115931280391
88LMNW1SNAKE-LOWER MONUMENTAL DAM01-17-2022INFLOW (KAF)119901304792
89ALPW4SNAKE-NEAR ALPINE01-17-2022DISCHARGE (KAF)49462180
90ANAW1SNAKE-NEAR ANATONE01-17-2022DISCHARGE (KAF)6406835677
91BFTI1SNAKE-NEAR BLACKFOOT01-17-2022DISCHARGE (KAF)954786121
92HEII1SNAKE-NEAR HEISE01-17-2022DISCHARGE (KAF)10891003109
93JKSW4SNAKE-NEAR JACKSON01-17-2022DISCHARGE (KAF)34748072
94SHYI1SNAKE-NEAR SHELLEY01-17-2022DISCHARGE (KAF)11101030108
95LLKW1SPOKANE-AT LONGLAKE01-17-2022INFLOW (KAF)26102617100
96SPOW1SPOKANE-AT SPOKANE01-17-2022DISCHARGE (KAF)22792285100
97SJMI1ST JOE-AT ST MARIES01-17-2022STAGE (FT)MMM
98SATI1ST MARIES-NEAR SANTA01-17-2022DISCHARGE (KAF)11912993
99STRM8ST. REGIS-NEAR ST. REGIS01-17-2022DISCHARGE (KAF)13315487
100TNAW1TEANAWAY-BELOW FORKS01-17-2022DISCHARGE (KAF)151112134
101TEAI1TETON-NEAR ST. ANTHONY01-17-2022DISCHARGE (KAF)11214776
102RILW1TIETON-RIMROCK LAKE NEAR RIMROCK01-17-2022INFLOW (KAF)10811198
103PDTO3UMATILLA-AT PENDLETON01-17-2022DISCHARGE (KAF)231202114
104GIBO3UMATILLA-NEAR GIBBON01-17-2022DISCHARGE (KAF)9487107
105UMAO3UMATILLA-NEAR UMATILLA01-17-2022DISCHARGE (KAF)223182122
106TCHW1WALLA WALLA-NEAR TOUCHET01-17-2022DISCHARGE (KAF)18423379
107WSRI1WEISER-NEAR WEISER01-17-2022DISCHARGE (KAF)359357101
108PESW1WENATCHEE-AT PESHASTIN01-17-2022DISCHARGE (KAF)651638102
109UNDW1WHITE SALMON-NEAR UNDERWOOD01-17-2022DISCHARGE (KAF)355336106
110RIDI1WILLOW CREEK-RIRIE DAM01-17-2022INFLOW (KAF)4931157
111EASW1YAKIMA-AT EASTON01-17-2022DISCHARGE (KAF)11699117
112KIOW1YAKIMA-AT KIONA01-17-2022DISCHARGE (KAF)96598698
113UMTW1YAKIMA-AT UMTANUM01-17-2022DISCHARGE (KAF)553509109
114KEDW1YAKIMA-KEECHELUS LAKE01-17-2022INFLOW (KAF)10482126
115PARW1YAKIMA-NEAR PARKER01-17-2022DISCHARGE (KAF)65167696